Location: Bambrugge
(50.9212°N, 3.9299°E)
Time: 02:40:18
(UTC+00:00)

Okean 1-7 - Pass Details

Date: 23 May 2024
Orbit: 579 x 604 km, 82.5° (Epoch: 21 June)

Event Time Altitude Azimuth Distance (km) Brightness Sun altitude
Exits shadow 01:30:23 25° 213° (SSW) 1,233 4.0 -14.5°
Maximum altitude 01:32:45 57° 284° (WNW) 713 3.3 -14.3°
Drops below altitude 10° 01:37:01 10° 3° (N) 1,961 6.7 -14.0°
Sets 01:39:17 0° 8° (N) 2,872 7.9 -13.9°
